Other Public Products
Issued by NWS Charleston, SC

Current Version | Previous Version | Graphics & Text | Print | Product List | Glossary On
Versions: 1 2 3 4 5 6 7 8 9 10 11 12 13 14 15 16 17 18 19 20 21 22 23 24 25 26 27 28 29 30 31 32 33 34 35 36 37 38 39 40 41 42 43 44 45 46 47 48 49 50
000 FPUS82 KCHS 201839 OPUCHS TEST...KCHS/KSAV Gateway Observations...TEST National Weather Service Charleston SC 200 PM EDT WED SEP 20 2017 NOTE: "fair" indicates few or no clouds below 12,000 feet with no significant weather and/or obstructions to visibility. SCZ050-WAZ558-NCZ071-TXZ119-213-PAZ071-DCZ001-FLZ074-172-MI076- NYZ176-178-MAZ016-IL014-TNZ027-NJZ106-GAZ044-MD014-201900- ...Gateway Observations for Charleston International... CITY SKY/WX TMP DP RH WIND PRES REMARKS Chas Airport MOSUNNY 88 68 51 SW7 30.00F HX 91 6HR MIN TEMP: 74; 6HR MAX TEMP: 90; Seattle CLOUDY 52 48 86 W6 29.68R 6HR MIN TEMP: 50; 6HR MAX TEMP: 53; 6HR PCP: 0.13; Charlotte MOSUNNY 88 67 49 CALM 30.02F HX 91 6HR MIN TEMP: 69; 6HR MAX TEMP: 88; Dallas DFW MOSUNNY 93 72 50 S18G25 29.86F HX 101 6HR MIN TEMP: 78; 6HR MAX TEMP: 94; Dallas Love MOSUNNY 92 72 51 S20G25 29.87F HX 99 6HR MIN TEMP: 78; 6HR MAX TEMP: 92; Philladelphia PTSUNNY 85 66 53 N14 29.89F 6HR MIN TEMP: 71; 6HR MAX TEMP: 85; Wash National MOSUNNY 86 62 44 NW7 29.94F 6HR MIN TEMP: 71; 6HR MAX TEMP: 87; Baltimore MOSUNNY 85 66 53 NW9G24 29.92F 6HR MIN TEMP: 71; 6HR MAX TEMP: 85; Miami PTSUNNY 90 75 61 E8 29.97F HX 100 6HR MIN TEMP: 83; 6HR MAX TEMP: 91; Detroit MOSUNNY 78 67 68 VRB5 30.01F 6HR MIN TEMP: 65; 6HR MAX TEMP: 78; Newark CLOUDY 80 64 58 N20 29.88S 6HR MIN TEMP: 72; 6HR MAX TEMP: 81; Laguardia PTSUNNY 77 66 68 N18G25 29.86F 6HR MIN TEMP: 72; 6HR MAX TEMP: 77; J F K CLOUDY 79 65 62 N21G30 29.86S 6HR MIN TEMP: 73; 6HR MAX TEMP: 81; Boston Logan HVY RAIN 67 66 97 N24G31 29.86S FOG 6HR MIN TEMP: 66; 6HR MAX TEMP: 67; 6HR PCP: 0.11; Ft. Lauderdale MOSUNNY 92 74 55 E10 29.96F HX 101 Chicago O`Hare MOSUNNY 89 67 47 SW10G21 29.90F HX 92 6HR MIN TEMP: 66; 6HR MAX TEMP: 89; Chicago Midway MOSUNNY 89 68 49 S13 29.91F HX 93 6HR MIN TEMP: 67; 6HR MAX TEMP: 89; Houston Bush PTSUNNY 91 73 55 S9 29.94F HX 99 6HR MIN TEMP: 77; 6HR MAX TEMP: 92; Houston Hobby MOSUNNY 91 75 59 S14G21 29.94F HX 101 6HR MIN TEMP: 80; 6HR MAX TEMP: 93; Nashville PTSUNNY 88 70 55 VRB6 30.04F HX 93 6HR MIN TEMP: 68; 6HR MAX TEMP: 88; Atlanta MOSUNNY 87 66 49 N6 30.06F 6HR MIN TEMP: 70; 6HR MAX TEMP: 88; $$ GAZ044-118-TXZ119-213-NCZ071-DCZ001-MDZ014-506-PAZ021-071-NJZ106- NYZ176-178-MAZ106-OHZ011-021-055-MIZ076-KYZ091-ILZ014-INZ047- MNZ060-ONZ431-201900- ...Gateway Observations for Savannah International... CITY SKY/WX TMP DP RH WIND PRES REMARKS Savannah Arpt CLOUDY 90 72 55 SW6 30.00F HX 97 6HR MIN TEMP: 74; 6HR MAX TEMP: 90; Atlanta MOSUNNY 87 66 49 N6 30.06F 6HR MIN TEMP: 70; 6HR MAX TEMP: 88; Charlotte MOSUNNY 88 67 49 CALM 30.02F HX 91 6HR MIN TEMP: 69; 6HR MAX TEMP: 88; Dallas DFW MOSUNNY 93 72 50 S18G25 29.86F HX 101 6HR MIN TEMP: 78; 6HR MAX TEMP: 94; Houston Bush PTSUNNY 91 73 55 S9 29.94F HX 99 6HR MIN TEMP: 77; 6HR MAX TEMP: 92; Wash National MOSUNNY 86 62 44 NW7 29.94F 6HR MIN TEMP: 71; 6HR MAX TEMP: 87; Wash Dulles MOSUNNY 85 61 44 W12 29.96F 6HR MIN TEMP: 65; 6HR MAX TEMP: 85; Baltimore MOSUNNY 85 66 53 NW9G24 29.92F 6HR MIN TEMP: 71; 6HR MAX TEMP: 85; Philadelphia PTSUNNY 85 66 53 N14 29.89F 6HR MIN TEMP: 71; 6HR MAX TEMP: 85; Newark CLOUDY 80 64 58 N20 29.88S 6HR MIN TEMP: 72; 6HR MAX TEMP: 81; Laguardia PTSUNNY 77 66 68 N18G25 29.86F 6HR MIN TEMP: 72; 6HR MAX TEMP: 77; J F K CLOUDY 79 65 62 N21G30 29.86S 6HR MIN TEMP: 73; 6HR MAX TEMP: 81; Boston HVY RAIN 67 66 97 N24G31 29.86S FOG 6HR MIN TEMP: 66; 6HR MAX TEMP: 67; 6HR PCP: 0.11; Pittsburg PTSUNNY 80 64 58 N7 30.03F 6HR MIN TEMP: 64; 6HR MAX TEMP: 84; 6HR PCP: TRACE; Akron PTSUNNY 81 62 52 SW3 30.03F 6HR MIN TEMP: 67; 6HR MAX TEMP: 81; Cleveland MOSUNNY 86 62 44 VRB5 30.02F 6HR MIN TEMP: 70; 6HR MAX TEMP: 86; Cincinnati PTSUNNY 83 71 67 S9 30.03F 6HR MIN TEMP: 64; 6HR MAX TEMP: 83; Columbus MOSUNNY 81 65 58 CALM 30.01F Detroit MOSUNNY 78 67 68 VRB5 30.01F 6HR MIN TEMP: 65; 6HR MAX TEMP: 78; Chicago O`Hare MOSUNNY 89 67 47 SW10G21 29.90F HX 92 6HR MIN TEMP: 66; 6HR MAX TEMP: 89; Minneapolis MOSUNNY 74 58 57 NW9 29.79R 6HR MIN TEMP: 68; 6HR MAX TEMP: 74; Indianapolis MOSUNNY 86 70 58 S12G17 29.98F HX 90 6HR MIN TEMP: 66; 6HR MAX TEMP: 87; Toronto Canada MOSUNNY 77 66 69 S9 30.03F $$

USA.gov is the U.S. government's official web portal to all federal, state and local government web resources and services.